Kyiv, Ukraine

10:19 AM EET on November 21, 2019 (GMT +0200)
Zhuliany

Weather History for UKKK - October, 2019

Change the Weather History Date:

Tuesday, October 22, 2019

  Actual Average (UKBB) Record (UKBB)
Temperature  
Mean Temperature 54 °F -  
Max Temperature 61 °F 49 °F 66 °F (2012)
Min Temperature 47 °F 34 °F 24 °F (1999)
Degree Days  
Heating Degree Days 11    
Growing Degree Days 4 (Base 50)    
Moisture  
Dew Point 50 °F    
Average Humidity 96    
Maximum Humidity 100    
Minimum Humidity 68    
Precipitation  
Precipitation 0.00 in 0.06 in - ()
Sea Level Pressure  
Sea Level Pressure 30.24 in    
Wind  
Wind Speed 3 mph ()    
Max Wind Speed 7 mph    
Max Gust Speed -    
Visibility 1.3 miles    
Events Fog    
Averages and records for this station are not official NWS values.
T = Trace of Precipitation, MM = Missing Value Source: Averaged Metar Reports

Daily Weather History Graph

Daily Weather History Graph

Search for Another Location

Airport or City:

Astronomy

Oct. 22, 2019 Rise Set
Actual Time 7:31 AM EEST 5:53 PM EEST
Civil Twilight 6:57 AM EEST 6:26 PM EEST
Nautical Twilight 6:19 AM EEST 7:04 PM EEST
Astronomical Twilight 5:42 AM EEST 7:42 PM EEST
Moon No Moon Rise 3:37 PM EEST (10/22)
Length of Visible Light 11h 28m
Length of Day
10h 22m
Last Quarter, 40% of the Moon is Illuminated
Oct 22
Last Quarter
Oct 28
New
Nov 4
First Quarter
Nov 12
Full
Nov 19
Last Quarter

Hourly Weather History & Observations

Time (EEST) Temp. Windchill Dew Point Humidity Pressure Visibility Wind Dir Wind Speed Gust Speed Precip Events Conditions
12:00 AM 55 °F - 53 °F 91% 30.21 in 1 mi West 4.5 mph - -   Mist
12:00 AM 50.0 °F - 50.0 °F 100% 30.21 in 1.7 mi WSW 4.5 mph - N/A   Partly Cloudy
12:30 AM 50.0 °F - 50.0 °F 100% 30.21 in 1.4 mi WSW 4.5 mph - N/A   Unknown
12:37 AM 50.0 °F - 50.0 °F 100% 30.21 in 0.7 mi WSW 4.5 mph - N/A   Mist
12:43 AM 48.2 °F - 48.2 °F 100% 30.21 in 0.2 mi WSW 4.5 mph - N/A   Partly Cloudy
12:48 AM 46.4 °F - 46.4 °F 100% 30.21 in 0.2 mi West 2.2 mph - N/A Fog Fog
12:50 AM 46.4 °F - 46.4 °F 100% 30.21 in 0.2 mi West 2.2 mph - N/A Fog Fog
1:00 AM 46.4 °F - 46.4 °F 100% 30.21 in 0.1 mi Variable 2.2 mph - N/A Fog Fog
1:30 AM 44.6 °F 42.3 °F 44.6 °F 100% 30.21 in 0.3 mi SW 4.5 mph - N/A Fog Fog
1:44 AM 42.8 °F 40.2 °F 42.8 °F 100% 30.21 in 0.2 mi WSW 4.5 mph - N/A Fog Fog
2:00 AM 44.6 °F 42.3 °F 44.6 °F 100% 30.21 in 0.1 mi West 4.5 mph - N/A Fog Fog
2:21 AM 44.6 °F 40.8 °F 44.6 °F 100% 30.21 in 0.2 mi WSW 6.7 mph - N/A Fog Fog
2:30 AM 48.2 °F - 48.2 °F 100% 30.21 in 0.2 mi WSW 6.7 mph - N/A Fog Fog
2:41 AM 50.0 °F - 50.0 °F 100% 30.21 in 0.2 mi West 6.7 mph - N/A Fog Fog
3:00 AM 51 °F - 50 °F 96% 30.24 in 0 mi Calm Calm - - Fog Partial Fog
3:00 AM 50.0 °F - 50.0 °F 100% 30.21 in 0.1 mi WSW 4.5 mph - N/A Fog Fog
3:30 AM 50.0 °F - 50.0 °F 100% 30.21 in 0.2 mi Variable 2.2 mph - N/A Fog Fog
4:00 AM 48.2 °F - 48.2 °F 100% 30.21 in 0.2 mi WSW 4.5 mph - N/A Fog Fog
4:30 AM 48.2 °F - 48.2 °F 100% 30.21 in 0.2 mi WSW 4.5 mph - N/A Fog Fog
5:00 AM 48.2 °F - 48.2 °F 100% 30.21 in 0.2 mi WSW 4.5 mph - N/A Fog Fog
5:18 AM 48.2 °F - 48.2 °F 100% 30.21 in 0.2 mi WSW 6.7 mph - N/A Fog Fog
5:30 AM 48.2 °F - 48.2 °F 100% 30.24 in 0.2 mi WSW 4.5 mph - N/A Fog Fog
6:00 AM 49 °F - 49 °F 100% 30.25 in 0 mi WNW 2.2 mph - - Fog Heavy Fog
6:00 AM 48.2 °F - 48.2 °F 100% 30.24 in 0.2 mi WSW 4.5 mph - N/A Fog Fog
6:30 AM 48.2 °F - 48.2 °F 100% 30.24 in 0.2 mi West 6.7 mph - N/A Fog Fog
7:00 AM 48.2 °F - 48.2 °F 100% 30.21 in 0.2 mi West 6.7 mph - N/A Fog Fog
7:30 AM 48.2 °F - 48.2 °F 100% 30.24 in 0.2 mi West 6.7 mph - N/A Fog Fog
7:53 AM 48.2 °F - 48.2 °F 100% 30.24 in 0.2 mi West 4.5 mph - N/A Fog Fog
8:00 AM 48.2 °F - 48.2 °F 100% 30.24 in 0.1 mi West 4.5 mph - N/A Fog Fog
8:30 AM 48.2 °F - 48.2 °F 100% 30.24 in 0.1 mi West 4.5 mph - N/A Fog Fog
9:00 AM 48 °F - 48 °F 100% 30.27 in 0 mi Calm Calm - - Fog Heavy Fog
9:00 AM 48.2 °F - 48.2 °F 100% 30.24 in 0.1 mi West 2.2 mph - N/A Fog Fog
9:30 AM 48.2 °F - 48.2 °F 100% 30.24 in 0.1 mi Variable 2.2 mph - N/A Fog Fog
10:00 AM 50.0 °F - 50.0 °F 100% 30.27 in 0.1 mi West 4.5 mph - N/A Fog Fog
10:30 AM 50.0 °F - 50.0 °F 100% 30.27 in 0.2 mi Variable 2.2 mph - N/A Fog Fog
11:00 AM 50.0 °F - 50.0 °F 100% 30.27 in 0.2 mi Variable 2.2 mph - N/A Fog Fog
11:30 AM 51.8 °F - 51.8 °F 100% 30.27 in 0.3 mi Variable 2.2 mph - N/A   Mostly Cloudy
11:35 AM 51.8 °F - 51.8 °F 100% 30.27 in 0.6 mi Variable 2.2 mph - N/A   Mostly Cloudy
11:38 AM 51.8 °F - 51.8 °F 100% 30.27 in 0.6 mi West 2.2 mph - N/A   Mostly Cloudy
11:40 AM 53.6 °F - 53.6 °F 100% 30.27 in 0.6 mi West 2.2 mph - N/A   Mostly Cloudy
12:00 PM 55 °F - 53 °F 89% 30.27 in 2 mi SSE 4.5 mph - - Fog Light Fog
12:00 PM 53.6 °F - 53.6 °F 100% 30.27 in 1.5 mi Calm Calm - N/A   Scattered Clouds
12:30 PM 55.4 °F - 55.4 °F 100% 30.27 in - Variable 2.2 mph - N/A   Mist
1:00 PM 57.2 °F - 57.2 °F 100% 30.27 in 3.1 mi WSW 4.5 mph - N/A   Mist
1:30 PM 59.0 °F - 55.4 °F 88% 30.27 in 3.7 mi West 4.5 mph - N/A   Unknown
2:30 PM 62.6 °F - 55.4 °F 77% 30.24 in 5.6 mi West 4.5 mph - N/A   Unknown
3:00 PM 61 °F - 53 °F 69% 30.25 in 12 mi SSE 4.5 mph - -   Partly Cloudy
3:00 PM 64.4 °F - 55.4 °F 73% 30.24 in 5.0 mi West 4.5 mph - N/A   Unknown
3:30 PM 64.4 °F - 55.4 °F 73% 30.24 in 5.6 mi Variable 2.2 mph - N/A   Unknown
4:00 PM 66.2 °F - 55.4 °F 68% 30.24 in 5.6 mi Calm Calm - N/A   Unknown
4:30 PM 66.2 °F - 55.4 °F 68% 30.24 in 5.0 mi SE 4.5 mph - N/A   Unknown
5:00 PM 62.6 °F - 55.4 °F 77% 30.24 in 5.6 mi East 4.5 mph - N/A   Unknown
5:30 PM 55.4 °F - 51.8 °F 88% 30.24 in 5.0 mi East 4.5 mph - N/A   Unknown
6:00 PM 58 °F - 53 °F 77% 30.25 in 6 mi SSW 2.2 mph - -   Clear
6:00 PM 55.4 °F - 53.6 °F 94% 30.24 in - East 6.7 mph - N/A   Mist
6:30 PM 53.6 °F - 50.0 °F 88% 30.24 in 3.7 mi East 4.5 mph - N/A   Unknown
6:57 PM 51.8 °F - 51.8 °F 100% 30.24 in - East 2.2 mph - N/A   Mist
7:00 PM 51.8 °F - 51.8 °F 100% 30.24 in - East 2.2 mph - N/A   Mist
7:30 PM 50.0 °F - 50.0 °F 100% 30.24 in - East 4.5 mph - N/A   Mist
7:52 PM 51.8 °F - 51.8 °F 100% 30.24 in 1.5 mi Variable 2.2 mph - N/A   Unknown
8:00 PM 50.0 °F - 50.0 °F 100% 30.24 in 2.2 mi Variable 2.2 mph - N/A   Unknown
8:30 PM 51.8 °F - 51.8 °F 100% 30.24 in 1.3 mi Variable 2.2 mph - N/A   Unknown
8:43 PM 51.8 °F - 51.8 °F 100% 30.24 in - Calm Calm - N/A   Partly Cloudy
9:00 PM 52 °F - 52 °F 100% 30.26 in 1 mi South 2.2 mph - - Fog Heavy Fog
9:00 PM 50.0 °F - 50.0 °F 100% 30.24 in 0.2 mi Calm Calm - N/A Fog Fog
9:03 PM 50.0 °F - 50.0 °F 100% 30.24 in 0.3 mi Calm Calm - N/A Fog Fog
9:24 PM 48.2 °F - 48.2 °F 100% 30.24 in 0.1 mi East 2.2 mph - N/A Fog Fog
9:30 PM 48.2 °F - 48.2 °F 100% 30.24 in 0.1 mi East 2.2 mph - N/A Fog Fog
10:00 PM 50.0 °F - 50.0 °F 100% 30.24 in 0.1 mi Calm Calm - N/A Fog Fog
10:30 PM 50.0 °F - 50.0 °F 100% 30.24 in 0.1 mi Calm Calm - N/A Fog Fog
11:00 PM 50.0 °F - 50.0 °F 100% 30.24 in 0.2 mi Calm Calm - N/A Fog Fog
11:30 PM 48.2 °F - 48.2 °F 100% 30.24 in 0.1 mi Calm Calm - N/A Fog Fog